Location: Azul
(36.7830°S, 59.8500°W)
Time: 01:33:45
(UTC-03:00)

ISS - Pass Details

Date: 26 November 2020
Orbit: 418 x 420 km, 51.6° (Epoch: 04 December)

Event Time Altitude Azimuth Distance (km) Brightness Sun altitude
Exits shadow 04:00:29 22° 11° (N) 969 -2.2 -16.3°
Maximum altitude 04:01:42 29° 48° (NE) 819 -2.3 -16.1°
Drops below altitude 10° 04:04:43 10° 109° (ESE) 1,526 0.2 -15.7°
Sets 04:07:00 0° 121° (ESE) 2,399 1.8 -15.4°
